Wind_Speed
19 18 17 17 17 16 15 15 15 16 15 14 13 13 14 14 15 15 15 15 15 15 15 14 13 13 13 13 12 12 11 11 10 11 13 14 14 14 16 18 18 17 16 16
22 21 20 20 19 18 16 16 16 17 16 15 14 14 15 15 15 15 15 15 15 15 14 13 13 12 13 13 13 12 11 11 11 11 13 14 14 14 15 18 19 18 17 17
25 24 23 22 20 19 18 17 17 17 17 16 15 15 15 15 15 15 15 14 15 14 13 13 13 12 12 12 12 11 9 8 9 10 12 14 14 14 14 16 19 18 18 18
27 25 24 23 22 21 20 19 18 18 16 17 16 13 15 15 15 14 14 13 13 13 13 13 14 13 13 12 11 10 8 8 8 10 10 12 13 14 14 16 18 18 18 18
27 27 25 24 23 22 22 21 19 18 17 16 16 15 14 14 14 13 13 13 13 13 13 13 13 13 12 11 10 10 8 8 8 8 9 11 13 15 16 16 17 19 19 19
29 28 26 25 24 23 22 21 20 18 17 16 16 15 13 13 13 12 13 13 13 13 13 13 12 12 11 11 10 10 8 8 8 8 9 11 13 14 16 16 17 18 19 20
28 27 26 25 25 24 22 20 19 17 16 15 17 14 13 13 12 12 12 12 11 12 12 11 10 11 11 10 10 9 8 8 8 9 9 11 12 13 15 16 17 18 18 20
27 27 26 25 24 23 22 20 18 15 13 14 17 13 12 12 11 10 10 9 9 9 10 9 9 9 9 9 9 8 7 7 7 8 9 11 12 12 14 16 17 18 19 19
26 27 26 24 23 23 22 20 19 18 16 14 14 13 12 11 10 9 9 7 7 7 8 8 8 8 8 8 7 6 7 7 7 8 9 10 11 13 14 16 16 18 19 20
26 26 25 24 24 23 22 21 20 18 16 13 13 12 10 10 8 7 7 7 7 6 6 6 6 7 7 7 7 6 6 6 7 8 9 10 11 12 14 15 16 17 19 20
25 24 24 23 22 22 21 21 20 18 17 13 10 11 12 10 8 7 7 7 6 6 7 6 6 6 7 6 6 6 6 5 6 8 9 10 11 12 13 15 16 17 19 21
25 24 23 23 23 23 22 21 19 18 17 14 11 12 13 10 9 9 8 8 7 7 7 7 6 6 5 5 6 5 5 5 6 6 8 11 12 12 13 15 16 17 18 20
27 25 23 22 23 23 22 21 20 19 18 15 12 13 14 11 10 10 10 9 9 9 8 8 7 6 5 5 6 5 5 5 5 6 7 9 11 12 13 14 16 17 19 20
29 27 23 19 19 21 22 21 21 19 17 16 15 15 16 13 12 12 12 11 10 10 10 9 8 7 7 7 6 6 6 6 6 7 8 9 10 11 13 14 15 16 17 18
31 29 26 25 25 23 22 22 22 21 19 17 16 16 16 15 14 13 12 12 12 11 11 10 10 9 8 9 8 8 8 8 8 8 9 10 10 11 12 13 15 15 16 17
33 31 29 27 27 26 25 25 24 23 22 20 19 20 19 18 16 15 14 14 13 13 12 12 12 11 11 11 11 11 10 10 10 10 11 12 12 12 13 14 15 15 16 17
36 33 31 28 28 28 28 26 26 25 24 21 21 21 21 20 18 18 17 16 16 15 15 14 14 14 14 14 14 13 13 13 12 12 12 12 13 13 13 14 15 16 17 18
38 35 33 30 30 29 28 29 27 26 25 24 24 23 22 21 21 20 19 19 18 18 18 17 17 17 17 17 17 17 17 16 15 15 14 14 14 15 15 15 16 18 20 21
38 36 34 32 30 30 32 29 27 27 27 26 25 25 24 23 23 23 22 22 21 21 20 20 21 20 20 20 19 19 19 19 18 17 16 16 17 17 17 17 18 19 20 21
37 36 35 35 32 30 32 31 28 28 29 27 27 26 25 24 25 25 23 23 23 23 23 23 23 22 22 22 21 21 21 20 19 19 18 18 18 19 20 20 19 20 21 22
38 38 37 36 35 33 35 32 29 30 30 28 27 27 26 26 26 26 25 25 24 25 24 24 24 24 24 23 23 23 23 22 21 21 21 20 20 20 21 21 21 21 22 23
39 38 38 37 36 36 37 33 32 32 30 29 28 28 29 28 28 28 27 27 27 27 27 27 26 26 26 26 25 25 24 24 24 23 23 22 22 23 23 23 23 23 24 25
39 39 39 39 39 38 36 35 34 33 33 32 31 30 30 30 29 28 28 27 27 27 28 28 28 28 28 27 27 26 25 25 25 24 23 23 24 24 25 25 26 27 26 26
37 37 37 37 38 37 36 35 34 33 33 33 32 31 30 29 29 29 28 28 27 27 27 28 29 28 28 28 27 27 27 26 26 25 25 25 26 26 26 25 26 26 27 27
36 35 35 35 36 35 35 34 33 32 32 32 31 30 30 30 29 28 28 27 27 27 26 27 27 27 27 27 27 26 26 26 27 26 26 26 27 27 27 27 27 26 27 27
34 34 34 35 34 34 32 32 31 31 30 30 30 30 30 29 29 28 28 27 26 25 24 24 25 25 26 26 26 26 26 27 27 27 27 27 27 27 27 27 27 28 28 28
Wind_Direction
260 262 264 266 268 272 276 279 282 285 290 295 301 302 302 302 300 301 300 301 302 304 306 308 308 309 308 306 300 296 283 272 266 252 235 231 230 225 220 216 214 213 211 209
259 260 261 263 267 271 273 276 278 282 288 294 300 302 300 297 298 299 298 296 296 299 300 305 305 304 303 303 303 299 289 276 265 252 240 233 231 227 220 215 216 216 213 210
258 258 259 261 263 267 269 271 273 278 287 293 299 303 300 296 296 297 296 293 294 294 294 299 302 301 301 303 303 300 288 270 258 247 240 234 228 225 217 214 216 215 212 212
255 258 258 259 261 264 265 267 270 276 282 286 295 296 297 297 298 297 294 291 289 288 293 295 298 299 299 299 299 295 284 271 260 244 235 228 222 220 217 215 216 216 216 217
254 255 256 257 259 260 262 265 269 274 280 283 290 293 292 297 297 296 292 287 285 284 291 295 298 301 301 296 295 292 280 267 256 245 237 227 220 220 219 218 219 218 220 221
253 254 255 256 257 258 261 265 268 272 277 280 283 288 291 291 293 292 290 286 282 281 286 292 297 301 305 302 294 287 274 263 255 243 236 228 222 223 222 222 222 222 223 222
253 255 255 255 256 257 258 260 263 268 274 276 280 285 285 286 290 291 290 287 280 278 282 291 298 301 305 304 296 284 270 259 254 244 234 230 227 224 222 222 224 224 224 224
250 253 253 253 253 254 252 251 249 252 262 271 282 283 286 287 287 291 292 288 283 280 283 291 298 304 306 306 299 283 268 258 252 246 237 233 233 229 224 225 229 229 228 225
245 248 250 250 249 249 249 248 248 250 254 258 270 280 286 285 284 290 288 281 282 285 289 290 293 301 305 308 306 283 270 262 251 246 239 235 236 233 229 229 232 231 228 225
240 244 248 247 246 246 245 245 245 246 251 257 271 279 276 276 277 283 284 277 281 296 301 296 295 300 305 312 313 291 280 265 252 248 242 238 238 235 232 230 232 231 228 228
237 239 244 245 244 245 244 243 244 244 245 245 257 266 268 269 268 273 281 276 278 290 298 303 300 300 302 308 311 301 283 269 262 252 240 237 239 239 235 233 234 234 233 232
233 233 236 241 242 242 241 241 241 241 248 245 243 259 266 263 263 267 273 277 276 282 293 299 302 301 295 300 308 299 292 279 272 260 246 241 242 240 238 239 238 235 235 234
229 230 231 237 242 242 240 240 240 239 243 245 242 255 262 257 262 264 266 271 270 275 282 284 292 298 291 297 308 299 291 285 279 269 259 250 247 247 246 245 244 239 236 235
227 228 226 228 239 242 240 240 240 239 240 245 241 245 260 260 262 264 264 265 265 268 269 270 278 286 284 285 294 301 296 289 284 275 265 260 255 253 252 250 246 242 239 238
226 228 227 224 227 233 234 236 238 239 235 237 246 250 258 263 263 264 264 263 261 263 264 264 268 274 279 281 282 286 290 285 280 277 271 266 263 261 257 254 248 246 246 244
225 228 229 230 232 233 233 234 237 237 238 239 243 251 257 263 264 264 263 260 260 261 261 262 263 266 273 275 276 277 283 283 281 279 278 272 271 269 261 255 250 249 248 247
226 228 230 232 233 233 233 234 235 238 239 242 247 252 258 260 261 262 261 259 260 261 261 261 264 268 273 273 274 276 278 280 281 280 278 275 272 270 263 256 249 248 248 247
227 228 229 231 232 232 235 235 235 237 240 244 248 252 255 258 259 260 260 260 261 261 260 259 262 267 269 270 270 272 274 275 278 280 275 268 268 267 265 257 253 252 251 249
228 228 229 231 234 235 237 237 237 240 243 247 251 254 257 260 261 261 261 261 261 261 260 260 262 266 268 269 270 271 270 272 274 275 271 265 263 262 260 258 255 255 254 255
227 228 230 232 232 236 242 240 239 243 246 248 251 255 257 260 261 261 259 260 261 261 261 262 263 265 267 268 268 271 269 269 269 270 268 266 263 262 260 258 256 254 254 258
226 228 230 234 235 238 242 243 243 245 246 247 250 253 255 257 259 261 261 260 261 259 260 261 262 263 265 267 269 272 271 269 268 267 264 262 264 264 262 261 259 257 258 260
225 229 231 234 237 240 244 246 246 248 249 250 250 252 255 256 257 258 258 259 259 259 260 260 261 262 262 264 268 271 269 268 266 265 263 261 262 263 263 262 262 261 260 260
225 227 231 234 237 242 246 247 248 249 250 250 252 253 254 255 256 256 256 257 259 260 260 260 261 262 262 263 266 268 269 268 265 263 263 262 261 262 262 262 263 263 262 262
226 228 232 235 238 242 245 246 246 247 248 249 250 251 252 253 254 256 257 258 258 258 258 259 260 260 260 262 264 266 268 267 264 262 261 262 262 261 261 262 262 262 261 262
227 229 232 236 238 240 242 244 244 245 246 247 249 249 250 252 252 254 256 257 258 257 257 257 257 257 258 258 261 264 265 264 263 261 261 263 261 262 263 262 262 263 263 263
227 229 232 235 237 239 240 242 242 243 243 244 245 247 248 249 250 252 253 254 255 255 254 255 255 257 257 257 260 263 263 263 262 261 263 263 263 262 262 262 265 268 269 269
Height
5880 5882 5883 5883 5883 5884 5885 5885 5884 5883 5883 5883 5883 5883 5882 5880 5879 5878 5876 5875 5873 5870 5868 5865 5863 5862 5860 5859 5858 5857 5856 5856 5856 5858 5859 5861 5862 5863 5866 5868 5870 5873 5876 5878
5876 5877 5878 5878 5879 5880 5881 5881 5881 5880 5880 5880 5880 5880 5878 5877 5876 5875 5873 5871 5870 5868 5866 5863 5861 5860 5858 5856 5855 5854 5853 5853 5854 5855 5856 5858 5860 5861 5863 5866 5868 5871 5873 5876
5870 5872 5873 5874 5875 5876 5877 5877 5877 5877 5877 5877 5877 5877 5875 5874 5873 5871 5870 5868 5867 5865 5863 5861 5860 5858 5856 5855 5854 5852 5851 5851 5851 5852 5854 5856 5857 5859 5861 5863 5866 5869 5871 5873
5864 5866 5868 5869 5870 5871 5872 5873 5873 5873 5874 5875 5875 5875 5873 5871 5869 5868 5867 5865 5864 5862 5861 5859 5858 5856 5854 5853 5852 5851 5850 5849 5849 5849 5851 5853 5855 5857 5859 5861 5864 5866 5869 5871
5858 5860 5862 5864 5865 5866 5867 5868 5869 5870 5871 5871 5871 5871 5872 5868 5866 5865 5864 5862 5860 5859 5858 5856 5855 5854 5852 5851 5850 5849 5848 5848 5848 5848 5849 5851 5853 5855 5857 5859 5862 5864 5866 5868
5852 5854 5856 5858 5860 5861 5862 5864 5865 5866 5867 5868 5868 5867 5867 5865 5863 5862 5860 5858 5857 5856 5855 5854 5852 5851 5850 5849 5847 5846 5846 5846 5846 5846 5848 5849 5851 5852 5854 5856 5859 5861 5863 5865
5846 5848 5850 5852 5854 5856 5858 5861 5862 5863 5865 5865 5863 5863 5864 5861 5860 5859 5857 5855 5854 5853 5852 5851 5849 5848 5847 5846 5845 5844 5843 5843 5844 5844 5846 5847 5849 5850 5851 5853 5856 5858 5860 5862
5840 5843 5844 5846 5849 5850 5853 5856 5860 5862 5864 5863 5859 5859 5860 5857 5856 5855 5854 5853 5851 5850 5849 5848 5847 5846 5845 5843 5842 5841 5840 5841 5841 5842 5843 5844 5846 5847 5849 5851 5853 5855 5857 5859
5835 5837 5838 5841 5843 5845 5847 5850 5854 5856 5857 5858 5858 5857 5856 5854 5853 5853 5851 5850 5849 5848 5847 5846 5845 5844 5843 5842 5840 5839 5838 5838 5839 5839 5840 5842 5843 5845 5846 5848 5850 5851 5853 5856
5829 5831 5833 5835 5838 5840 5843 5845 5848 5851 5853 5855 5856 5854 5854 5852 5851 5850 5849 5848 5847 5846 5845 5844 5843 5842 5841 5840 5839 5838 5837 5837 5837 5838 5838 5839 5841 5842 5843 5844 5846 5848 5850 5852
5823 5827 5828 5830 5832 5835 5838 5840 5843 5846 5849 5852 5854 5855 5850 5849 5848 5848 5847 5846 5846 5845 5844 5843 5842 5841 5840 5839 5838 5837 5836 5836 5836 5836 5837 5837 5838 5839 5840 5842 5843 5844 5846 5848
5817 5821 5824 5826 5828 5830 5833 5836 5838 5842 5843 5845 5849 5852 5846 5846 5846 5845 5845 5844 5844 5843 5842 5841 5841 5839 5839 5838 5837 5836 5835 5835 5835 5835 5835 5835 5836 5837 5838 5839 5840 5841 5843 5844
5811 5815 5819 5821 5824 5826 5828 5830 5833 5837 5839 5841 5845 5848 5842 5842 5842 5842 5842 5842 5841 5841 5840 5840 5839 5838 5837 5837 5836 5835 5834 5834 5834 5833 5833 5833 5833 5834 5835 5836 5836 5838 5839 5840
5806 5810 5815 5820 5821 5821 5823 5826 5829 5832 5835 5838 5839 5841 5839 5839 5839 5839 5839 5839 5839 5838 5838 5837 5837 5836 5836 5835 5834 5834 5833 5832 5832 5832 5831 5831 5831 5831 5832 5832 5833 5834 5835 5836
5799 5803 5808 5812 5814 5816 5819 5821 5824 5827 5830 5834 5835 5835 5835 5835 5835 5835 5835 5835 5835 5835 5835 5835 5834 5834 5834 5833 5833 5832 5831 5831 5830 5830 5829 5829 5829 5829 5829 5829 5830 5831 5832 5833
5792 5797 5801 5805 5807 5810 5813 5816 5819 5821 5824 5827 5829 5830 5830 5830 5830 5831 5831 5831 5831 5832 5832 5832 5831 5831 5831 5831 5830 5830 5829 5828 5828 5827 5827 5826 5826 5826 5826 5826 5826 5827 5828 5829
5785 5790 5795 5799 5801 5804 5807 5810 5813 5816 5818 5821 5823 5824 5824 5825 5825 5826 5826 5827 5827 5827 5828 5828 5828 5828 5827 5827 5827 5826 5826 5826 5825 5824 5824 5823 5823 5823 5823 5823 5823 5824 5824 5825
5777 5782 5787 5792 5795 5798 5803 5803 5806 5809 5812 5814 5816 5817 5818 5819 5820 5820 5821 5821 5822 5822 5823 5823 5823 5823 5823 5823 5823 5822 5822 5822 5822 5821 5820 5820 5820 5820 5819 5819 5819 5820 5820 5820
5768 5774 5779 5783 5787 5790 5793 5796 5800 5803 5805 5807 5809 5811 5812 5813 5813 5814 5815 5815 5816 5817 5817 5817 5818 5818 5818 5818 5818 5818 5818 5818 5818 5817 5817 5817 5816 5816 5816 5815 5815 5816 5816 5816
5760 5765 5771 5775 5780 5783 5786 5788 5792 5796 5797 5800 5801 5803 5805 5806 5807 5807 5808 5809 5809 5810 5810 5811 5811 5812 5812 5812 5812 5812 5812 5812 5812 5812 5812 5812 5812 5812 5811 5811 5811 5812 5812 5812
5752 5756 5761 5766 5770 5774 5775 5780 5785 5789 5790 5792 5793 5795 5797 5798 5799 5800 5801 5801 5802 5803 5804 5804 5805 5805 5806 5806 5806 5806 5806 5807 5807 5807 5807 5807 5806 5806 5806 5806 5806 5806 5807 5806
5744 5749 5753 5757 5762 5767 5767 5772 5776 5778 5781 5783 5785 5787 5788 5790 5791 5792 5793 5794 5795 5796 5796 5797 5798 5798 5799 5799 5799 5799 5799 5800 5800 5800 5800 5800 5801 5801 5801 5801 5801 5801 5801 5801
5735 5740 5744 5749 5753 5755 5759 5763 5766 5769 5772 5774 5776 5778 5780 5781 5782 5784 5785 5786 5787 5788 5789 5789 5790 5790 5791 5792 5792 5792 5793 5793 5793 5794 5794 5794 5794 5794 5794 5794 5794 5794 5794 5794
5726 5731 5735 5739 5743 5747 5750 5753 5756 5759 5762 5765 5767 5769 5771 5772 5774 5776 5777 5778 5779 5780 5781 5781 5782 5783 5783 5784 5785 5785 5785 5786 5786 5787 5787 5787 5787 5787 5787 5787 5787 5787 5787 5787
5717 5722 5726 5730 5734 5737 5740 5744 5747 5750 5753 5756 5758 5760 5762 5764 5766 5768 5769 5770 5771 5772 5773 5773 5774 5775 5776 5777 5777 5778 5778 5778 5779 5779 5780 5780 5780 5780 5780 5780 5780 5780 5780 5780
5709 5714 5718 5721 5725 5729 5732 5735 5738 5741 5744 5747 5749 5752 5754 5756 5758 5760 5761 5762 5764 5765 5766 5767 5767 5768 5769 5769 5770 5771 5771 5771 5771 5772 5772 5773 5773 5773 5773 5773 5773 5772 5772 5772